"Sample Date","Sample Time","Sample Value","Units","Flow Rate","Sample Interval","Number Channels","Micron Size 0","Counts/Channel 0","Micron Size 1","Counts/Channel 1","Micron Size 2","Counts/Channel 2","Micron Size 3","Counts/Channel 3","Micron Size 4","Counts/Channel 4","Micron Size 5","Counts/Channel 5","Micron Size 6","Counts/Channel 6","Micron Size 7","Counts/Channel 7","Micron Size 8","Counts/Channel 8","Micron Size 9","Counts/Channel 9","Micron Size 10","Counts/Channel 10","Micron Size 11","Counts/Channel 11","Micron Size 12","Counts/Channel 12","Micron Size 13","Counts/Channel 13","Micron Size 14","Counts/Channel 14","Micron Size 15","Counts/Channel 15","Micron Size 16","Counts/Channel 16","Micron Size 17","Counts/Channel 17","Micron Size 18","Counts/Channel 18","Micron Size 19","Counts/Channel 19","Micron Size 20","Counts/Channel 20","Micron Size 21","Counts/Channel 21","Micron Size 22","Counts/Channel 22","Micron Size 23","Counts/Channel 23","Micron Size 24","Counts/Channel 24","Micron Size 25","Counts/Channel 25","Micron Size 26","Counts/Channel 26","Micron Size 27","Counts/Channel 27","Micron Size 28","Counts/Channel 28","Micron Size 29","Counts/Channel 29","Micron Size 30","Counts/Channel 30","Micron Size 31","Counts/Channel 31"
"04/09/08","09:00:01",25599.000,"cc",28355.535,6.00,6,0.100,16909.000,0.200,3736.000,0.300,1890.000,0.500,2168.000,1.000,896.000,5.000,0
"04/09/08","09:00:07",24923.000,"cc",28286.592,6.00,6,0.100,16803.000,0.200,3407.000,0.300,1809.000,0.500,2027.000,1.000,877.000,5.000,0
"04/09/08","09:00:13",25379.000,"cc",28269.676,6.00,6,0.100,17063.000,0.200,3486.000,0.300,1800.000,0.500,2106.000,1.000,923.000,5.000,1.000
"04/09/08","09:00:19",25067.000,"cc",28344.463,6.00,6,0.100,16659.000,0.200,3536.000,0.300,1821.000,0.500,2111.000,1.000,939.000,5.000,1.000
"04/09/08","09:00:25",25338.000,"cc",28365.113,6.00,6,0.100,17045.000,0.200,3515.000,0.300,1775.000,0.500,2071.000,1.000,932.000,5.000,0
"04/09/08","09:00:31",24814.000,"cc",28323.943,6.00,6,0.100,16773.000,0.200,3470.000,0.300,1782.000,0.500,1906.000,1.000,882.000,5.000,1.000
"04/09/08","09:00:37",25504.000,"cc",28248.631,6.00,6,0.100,17058.000,0.200,3594.000,0.300,1832.000,0.500,2129.000,1.000,891.000,5.000,0
"04/09/08","09:00:43",25808.000,"cc",28373.238,6.00,6,0.100,17236.000,0.200,3627.000,0.300,1915.000,0.500,2087.000,1.000,943.000,5.000,0
"04/09/08","09:00:49",24937.000,"cc",28264.520,6.00,6,0.100,16767.000,0.200,3398.000,0.300,1796.000,0.500,2043.000,1.000,931.000,5.000,2.000
"04/09/08","09:00:55",25139.000,"cc",28389.145,6.00,6,0.100,16965.000,0.200,3416.000,0.300,1746.000,0.500,2054.000,1.000,955.000,5.000,3.000
"04/09/08","09:01:01",25011.000,"cc",28258.832,6.00,6,0.100,16782.000,0.200,3499.000,0.300,1775.000,0.500,2010.000,1.000,945.000,5.000,0
"04/09/08","09:01:07",24458.000,"cc",28378.197,6.00,6,0.100,16458.000,0.200,3355.000,0.300,1776.000,0.500,2026.000,1.000,842.000,5.000,1.000
"04/09/08","09:01:13",25091.000,"cc",28358.844,6.00,6,0.100,16899.000,0.200,3431.000,0.300,1817.000,0.500,2068.000,1.000,874.000,5.000,2.000
"04/09/08","09:01:19",25240.000,"cc",28324.232,6.00,6,0.100,16808.000,0.200,3535.000,0.300,1872.000,0.500,2065.000,1.000,960.000,5.000,0
"04/09/08","09:01:25",25214.000,"cc",28296.570,6.00,6,0.100,16838.000,0.200,3537.000,0.300,1793.000,0.500,2137.000,1.000,909.000,5.000,0
"04/09/08","09:01:31",25243.000,"cc",28258.174,6.00,6,0.100,17052.000,0.200,3437.000,0.300,1736.000,0.500,2068.000,1.000,948.000,5.000,2.000
"04/09/08","09:01:37",25200.000,"cc",28223.727,6.00,6,0.100,16902.000,0.200,3536.000,0.300,1752.000,0.500,2094.000,1.000,915.000,5.000,1.000
"04/09/08","09:01:43",25043.000,"cc",28326.297,6.00,6,0.100,16926.000,0.200,3396.000,0.300,1769.000,0.500,2070.000,1.000,880.000,5.000,2.000
"04/09/08","09:01:49",25382.000,"cc",28336.137,6.00,6,0.100,17051.000,0.200,3486.000,0.300,1758.000,0.500,2131.000,1.000,956.000,5.000,0
"04/09/08","09:01:55",24982.000,"cc",28384.723,6.00,6,0.100,16759.000,0.200,3404.000,0.300,1853.000,0.500,2065.000,1.000,901.000,5.000,0
"04/09/08","09:02:01",25458.000,"cc",28274.422,6.00,6,0.100,17166.000,0.200,3566.000,0.300,1861.000,0.500,2013.000,1.000,852.000,5.000,0
"04/09/08","09:02:07",25112.000,"cc",28250.811,6.00,6,0.100,16769.000,0.200,3521.000,0.300,1776.000,0.500,2120.000,1.000,925.000,5.000,1.000
"04/09/08","09:02:13",25264.000,"cc",28332.768,6.00,6,0.100,16923.000,0.200,3593.000,0.300,1828.000,0.500,2056.000,1.000,864.000,5.000,0
"04/09/08","09:02:19",25480.000,"cc",28320.508,6.00,6,0.100,17157.000,0.200,3615.000,0.300,1764.000,0.500,2046.000,1.000,898.000,5.000,0
"04/09/08","09:02:25",25229.000,"cc",28218.701,6.00,6,0.100,17070.000,0.200,3435.000,0.300,1816.000,0.500,2010.000,1.000,898.000,5.000,0
"04/09/08","09:02:31",25379.000,"cc",28370.190,6.00,6,0.100,17101.000,0.200,3446.000,0.300,1823.000,0.500,2115.000,1.000,894.000,5.000,0
"04/09/08","09:02:37",24939.000,"cc",28371.846,6.00,6,0.100,16799.000,0.200,3401.000,0.300,1792.000,0.500,2034.000,1.000,912.000,5.000,1.000
"04/09/08","09:02:43",24950.000,"cc",28302.039,6.00,6,0.100,16786.000,0.200,3445.000,0.300,1838.000,0.500,2021.000,1.000,860.000,5.000,0
"04/09/08","09:02:49",25509.000,"cc",28222.516,6.00,6,0.100,17211.000,0.200,3417.000,0.300,1892.000,0.500,2089.000,1.000,897.000,5.000,3.000
"04/09/08","09:02:55",26274.000,"cc",28337.885,6.00,6,0.100,17473.000,0.200,3726.000,0.300,1960.000,0.500,2171.000,1.000,944.000,5.000,0
"04/09/08","09:03:01",26180.000,"cc",28306.688,6.00,6,0.100,17210.000,0.200,3785.000,0.300,2066.000,0.500,2219.000,1.000,900.000,5.000,0
"04/09/08","09:03:07",25714.000,"cc",28391.219,6.00,6,0.100,17047.000,0.200,3639.000,0.300,1954.000,0.500,2170.000,1.000,904.000,5.000,0
"04/09/08","09:03:13",25859.000,"cc",28370.160,6.00,6,0.100,17299.000,0.200,3618.000,0.300,1880.000,0.500,2140.000,1.000,922.000,5.000,0
"04/09/08","09:03:19",26222.000,"cc",28219.311,6.00,6,0.100,17311.000,0.200,3747.000,0.300,1920.000,0.500,2288.000,1.000,955.000,5.000,1.000
"04/09/08","09:03:25",25529.000,"cc",28392.068,6.00,6,0.100,17315.000,0.200,3504.000,0.300,1791.000,0.500,2015.000,1.000,903.000,5.000,1.000
"04/09/08","09:03:31",25439.000,"cc",28329.859,6.00,6,0.100,17125.000,0.200,3545.000,0.300,1778.000,0.500,2097.000,1.000,893.000,5.000,1.000
"04/09/08","09:03:37",25263.000,"cc",28231.387,6.00,6,0.100,17031.000,0.200,3490.000,0.300,1840.000,0.500,2014.000,1.000,888.000,5.000,0
"04/09/08","09:03:43",25454.000,"cc",28350.328,6.00,6,0.100,17148.000,0.200,3439.000,0.300,1867.000,0.500,2106.000,1.000,894.000,5.000,0
"04/09/08","09:03:49",25335.000,"cc",28249.420,6.00,6,0.100,16947.000,0.200,3544.000,0.300,1831.000,0.500,2100.000,1.000,913.000,5.000,0
"04/09/08","09:03:55",25464.000,"cc",28364.887,6.00,6,0.100,17099.000,0.200,3521.000,0.300,1872.000,0.500,2103.000,1.000,869.000,5.000,0
"04/09/08","09:04:01",25437.000,"cc",28361.373,6.00,6,0.100,17067.000,0.200,3516.000,0.300,1854.000,0.500,2095.000,1.000,905.000,5.000,0
"04/09/08","09:04:07",25646.000,"cc",28292.633,6.00,6,0.100,17339.000,0.200,3570.000,0.300,1856.000,0.500,2008.000,1.000,872.000,5.000,1.000
"04/09/08","09:04:13",25714.000,"cc",28281.244,6.00,6,0.100,17120.000,0.200,3667.000,0.300,1838.000,0.500,2145.000,1.000,942.000,5.000,2.000
"04/09/08","09:04:19",26312.000,"cc",28310.078,6.00,6,0.100,17572.000,0.200,3706.000,0.300,1932.000,0.500,2155.000,1.000,946.000,5.000,1.000
"04/09/08","09:04:25",25354.000,"cc",28369.047,6.00,6,0.100,16993.000,0.200,3476.000,0.300,1823.000,0.500,2113.000,1.000,948.000,5.000,1.000
"04/09/08","09:04:31",25450.000,"cc",28321.676,6.00,6,0.100,17097.000,0.200,3522.000,0.300,1849.000,0.500,2069.000,1.000,911.000,5.000,2.000
"04/09/08","09:04:37",25208.000,"cc",28212.832,6.00,6,0.100,16770.000,0.200,3528.000,0.300,1815.000,0.500,2185.000,1.000,909.000,5.000,1.000
"04/09/08","09:04:43",25773.000,"cc",28347.527,6.00,6,0.100,17392.000,0.200,3489.000,0.300,1868.000,0.500,2087.000,1.000,937.000,5.000,0
"04/09/08","09:04:49",25453.000,"cc",28327.328,6.00,6,0.100,17145.000,0.200,3548.000,0.300,1815.000,0.500,2104.000,1.000,839.000,5.000,2.000
"04/09/08","09:04:55",25861.000,"cc",28332.283,6.00,6,0.100,17234.000,0.200,3667.000,0.300,1939.000,0.500,2126.000,1.000,894.000,5.000,1.000
"04/09/08","09:05:01",25521.000,"cc",28288.484,6.00,6,0.100,17137.000,0.200,3520.000,0.300,1870.000,0.500,2127.000,1.000,865.000,5.000,2.000
"04/09/08","09:05:07",25978.000,"cc",28355.150,6.00,6,0.100,17472.000,0.200,3538.000,0.300,1955.000,0.500,2135.000,1.000,878.000,5.000,0
"04/09/08","09:05:13",25388.000,"cc",28323.875,6.00,6,0.100,17017.000,0.200,3503.000,0.300,1869.000,0.500,2115.000,1.000,883.000,5.000,1.000
"04/09/08","09:05:19",25932.000,"cc",28356.578,6.00,6,0.100,17252.000,0.200,3691.000,0.300,1899.000,0.500,2153.000,1.000,935.000,5.000,2.000
"04/09/08","09:05:25",26274.000,"cc",28291.758,6.00,6,0.100,17459.000,0.200,3726.000,0.300,1875.000,0.500,2286.000,1.000,926.000,5.000,2.000
"04/09/08","09:05:31",26049.000,"cc",28329.811,6.00,6,0.100,17337.000,0.200,3639.000,0.300,1925.000,0.500,2204.000,1.000,943.000,5.000,1.000
"04/09/08","09:05:37",25661.000,"cc",28411.227,6.00,6,0.100,17217.000,0.200,3623.000,0.300,1900.000,0.500,1999.000,1.000,922.000,5.000,0
"04/09/08","09:05:43",24939.000,"cc",28350.602,6.00,6,0.100,16760.000,0.200,3590.000,0.300,1730.000,0.500,2052.000,1.000,807.000,5.000,0
"04/09/08","09:05:49",25748.000,"cc",28246.373,6.00,6,0.100,17214.000,0.200,3520.000,0.300,1894.000,0.500,2156.000,1.000,963.000,5.000,1.000
"04/09/08","09:05:55",25524.000,"cc",28330.955,6.00,6,0.100,17276.000,0.200,3521.000,0.300,1823.000,0.500,2041.000,1.000,863.000,5.000,0
"04/09/08","09:06:01",25245.000,"cc",28364.791,6.00,6,0.100,17188.000,0.200,3401.000,0.300,1798.000,0.500,2022.000,1.000,833.000,5.000,3.000
"04/09/08","09:06:07",25674.000,"cc",28208.639,6.00,6,0.100,17201.000,0.200,3740.000,0.300,1797.000,0.500,2062.000,1.000,874.000,5.000,0
"04/09/08","09:06:13",25656.000,"cc",28305.225,6.00,6,0.100,17320.000,0.200,3497.000,0.300,1833.000,0.500,2117.000,1.000,886.000,5.000,3.000
"04/09/08","09:06:19",25922.000,"cc",28324.959,6.00,6,0.100,17294.000,0.200,3634.000,0.300,1879.000,0.500,2156.000,1.000,959.000,5.000,0
"04/09/08","09:06:25",25546.000,"cc",28288.043,6.00,6,0.100,17209.000,0.200,3656.000,0.300,1801.000,0.500,1992.000,1.000,887.000,5.000,1.000
"04/09/08","09:06:31",25766.000,"cc",28356.143,6.00,6,0.100,17548.000,0.200,3485.000,0.300,1820.000,0.500,2045.000,1.000,867.000,5.000,1.000
"04/09/08","09:06:37",25612.000,"cc",28363.191,6.00,6,0.100,17145.000,0.200,3688.000,0.300,1848.000,0.500,2029.000,1.000,900.000,5.000,2.000
"04/09/08","09:06:43",25349.000,"cc",28319.672,6.00,6,0.100,17183.000,0.200,3489.000,0.300,1787.000,0.500,2001.000,1.000,888.000,5.000,1.000
"04/09/08","09:06:49",25350.000,"cc",28285.059,6.00,6,0.100,17067.000,0.200,3521.000,0.300,1782.000,0.500,2071.000,1.000,909.000,5.000,0
"04/09/08","09:06:55",26075.000,"cc",28267.563,6.00,6,0.100,17268.000,0.200,3595.000,0.300,1963.000,0.500,2261.000,1.000,988.000,5.000,0
"04/09/08","09:07:01",26319.000,"cc",28232.264,6.00,6,0.100,17480.000,0.200,3698.000,0.300,1921.000,0.500,2231.000,1.000,989.000,5.000,0
"04/09/08","09:07:07",26183.000,"cc",28346.318,6.00,6,0.100,17556.000,0.200,3617.000,0.300,1882.000,0.500,2200.000,1.000,928.000,5.000,0
"04/09/08","09:07:13",25818.000,"cc",28291.088,6.00,6,0.100,17119.000,0.200,3655.000,0.300,1879.000,0.500,2220.000,1.000,944.000,5.000,1.000
"04/09/08","09:07:19",26013.000,"cc",28427.992,6.00,6,0.100,17544.000,0.200,3544.000,0.300,1843.000,0.500,2181.000,1.000,901.000,5.000,0
"04/09/08","09:07:25",25904.000,"cc",28324.463,6.00,6,0.100,17467.000,0.200,3570.000,0.300,1775.000,0.500,2139.000,1.000,952.000,5.000,1.000
"04/09/08","09:07:31",25682.000,"cc",28313.012,6.00,6,0.100,17493.000,0.200,3578.000,0.300,1758.000,0.500,1993.000,1.000,858.000,5.000,2.000
"04/09/08","09:07:37",25297.000,"cc",28301.752,6.00,6,0.100,17257.000,0.200,3474.000,0.300,1689.000,0.500,1954.000,1.000,922.000,5.000,1.000
"04/09/08","09:07:43",25936.000,"cc",28315.772,6.00,6,0.100,17502.000,0.200,3649.000,0.300,1816.000,0.500,2103.000,1.000,865.000,5.000,1.000
"04/09/08","09:07:49",26440.000,"cc",28250.291,6.00,6,0.100,17622.000,0.200,3710.000,0.300,1936.000,0.500,2247.000,1.000,922.000,5.000,3.000
"04/09/08","09:07:55",25935.000,"cc",28230.889,6.00,6,0.100,17446.000,0.200,3674.000,0.300,1856.000,0.500,2098.000,1.000,860.000,5.000,1.000
"04/09/08","09:08:01",26790.000,"cc",28340.846,6.00,6,0.100,17844.000,0.200,3747.000,0.300,1973.000,0.500,2262.000,1.000,963.000,5.000,1.000
"04/09/08","09:08:07",26166.000,"cc",28304.666,6.00,6,0.100,17406.000,0.200,3630.000,0.300,1922.000,0.500,2233.000,1.000,975.000,5.000,0
"04/09/08","09:08:13",25955.000,"cc",28382.900,6.00,6,0.100,17635.000,0.200,3520.000,0.300,1827.000,0.500,2072.000,1.000,900.000,5.000,1.000
"04/09/08","09:08:19",26036.000,"cc",28372.586,6.00,6,0.100,17615.000,0.200,3444.000,0.300,1878.000,0.500,2138.000,1.000,960.000,5.000,1.000
"04/09/08","09:08:25",26015.000,"cc",28380.418,6.00,6,0.100,17574.000,0.200,3586.000,0.300,1879.000,0.500,2105.000,1.000,870.000,5.000,1.000
"04/09/08","09:08:31",25713.000,"cc",28318.885,6.00,6,0.100,17463.000,0.200,3515.000,0.300,1814.000,0.500,2060.000,1.000,861.000,5.000,0
"04/09/08","09:08:37",25737.000,"cc",28248.994,6.00,6,0.100,17496.000,0.200,3538.000,0.300,1753.000,0.500,2050.000,1.000,899.000,5.000,1.000
"04/09/08","09:08:43",25549.000,"cc",28286.381,6.00,6,0.100,17164.000,0.200,3634.000,0.300,1829.000,0.500,2049.000,1.000,872.000,5.000,1.000
"04/09/08","09:08:49",26074.000,"cc",28210.043,6.00,6,0.100,17498.000,0.200,3644.000,0.300,1901.000,0.500,2105.000,1.000,926.000,5.000,0
"04/09/08","09:08:55",26212.000,"cc",28364.330,6.00,6,0.100,17807.000,0.200,3531.000,0.300,1881.000,0.500,2082.000,1.000,908.000,5.000,3.000
"04/09/08","09:09:01",26240.000,"cc",28428.231,6.00,6,0.100,17588.000,0.200,3718.000,0.300,1821.000,0.500,2160.000,1.000,952.000,5.000,1.000
"04/09/08","09:09:07",26265.000,"cc",28333.178,6.00,6,0.100,17503.000,0.200,3639.000,0.300,1921.000,0.500,2252.000,1.000,950.000,5.000,0
"04/09/08","09:09:13",25757.000,"cc",28350.379,6.00,6,0.100,17637.000,0.200,3450.000,0.300,1847.000,0.500,1960.000,1.000,861.000,5.000,2.000
"04/09/08","09:09:19",26236.000,"cc",28298.949,6.00,6,0.100,17471.000,0.200,3758.000,0.300,1941.000,0.500,2122.000,1.000,943.000,5.000,1.000
"04/09/08","09:09:25",26934.000,"cc",28147.867,6.00,6,0.100,17946.000,0.200,3817.000,0.300,1946.000,0.500,2261.000,1.000,963.000,5.000,1.000
"04/09/08","09:09:31",26172.000,"cc",28295.420,6.00,6,0.100,17513.000,0.200,3706.000,0.300,1959.000,0.500,2118.000,1.000,876.000,5.000,0
"04/09/08","09:09:37",26194.000,"cc",28367.926,6.00,6,0.100,17522.000,0.200,3713.000,0.300,1894.000,0.500,2151.000,1.000,912.000,5.000,2.000
"04/09/08","09:09:43",26126.000,"cc",28439.527,6.00,6,0.100,17702.000,0.200,3618.000,0.300,1865.000,0.500,2066.000,1.000,874.000,5.000,1.000
"04/09/08","09:09:49",25777.000,"cc",28437.178,6.00,6,0.100,17629.000,0.200,3510.000,0.300,1743.000,0.500,2012.000,1.000,882.000,5.000,1.000
"04/09/08","09:09:55",25993.000,"cc",28196.240,6.00,6,0.100,17658.000,0.200,3517.000,0.300,1834.000,0.500,2079.000,1.000,904.000,5.000,1.000
"04/09/08","09:10:01",26083.000,"cc",28292.322,6.00,6,0.100,17720.000,0.200,3562.000,0.300,1849.000,0.500,2067.000,1.000,885.000,5.000,0
"04/09/08","09:10:07",25986.000,"cc",28287.830,6.00,6,0.100,17507.000,0.200,3590.000,0.300,1857.000,0.500,2124.000,1.000,908.000,5.000,0
"04/09/08","09:10:13",26086.000,"cc",28326.475,6.00,6,0.100,17486.000,0.200,3731.000,0.300,1869.000,0.500,2103.000,1.000,896.000,5.000,1.000
"04/09/08","09:10:19",25851.000,"cc",28256.645,6.00,6,0.100,17598.000,0.200,3621.000,0.300,1804.000,0.500,1934.000,1.000,893.000,5.000,1.000
"04/09/08","09:10:25",26019.000,"cc",28321.365,6.00,6,0.100,17757.000,0.200,3496.000,0.300,1809.000,0.500,2095.000,1.000,862.000,5.000,0
"04/09/08","09:10:31",26150.000,"cc",28382.203,6.00,6,0.100,17782.000,0.200,3561.000,0.300,1778.000,0.500,2133.000,1.000,895.000,5.000,1.000
"04/09/08","09:10:37",26246.000,"cc",28283.504,6.00,6,0.100,17724.000,0.200,3650.000,0.300,1856.000,0.500,2166.000,1.000,849.000,5.000,1.000
"04/09/08","09:10:43",26029.000,"cc",28322.992,6.00,6,0.100,17764.000,0.200,3509.000,0.300,1785.000,0.500,2065.000,1.000,906.000,5.000,0
"04/09/08","09:10:49",26357.000,"cc",28388.803,6.00,6,0.100,17797.000,0.200,3735.000,0.300,1855.000,0.500,2097.000,1.000,871.000,5.000,2.000
"04/09/08","09:10:55",26262.000,"cc",28342.318,6.00,6,0.100,17884.000,0.200,3585.000,0.300,1828.000,0.500,2078.000,1.000,886.000,5.000,1.000
"04/09/08","09:11:01",26731.000,"cc",28252.578,6.00,6,0.100,17920.000,0.200,3828.000,0.300,1857.000,0.500,2181.000,1.000,943.000,5.000,2.000
"04/09/08","09:11:07",26583.000,"cc",28307.559,6.00,6,0.100,17706.000,0.200,3788.000,0.300,1910.000,0.500,2284.000,1.000,895.000,5.000,0
"04/09/08","09:11:13",26908.000,"cc",28375.404,6.00,6,0.100,18028.000,0.200,3804.000,0.300,1924.000,0.500,2241.000,1.000,911.000,5.000,0
"04/09/08","09:11:19",26092.000,"cc",28283.729,6.00,6,0.100,17897.000,0.200,3482.000,0.300,1815.000,0.500,2011.000,1.000,886.000,5.000,1.000
"04/09/08","09:11:25",25948.000,"cc",28280.482,6.00,6,0.100,17819.000,0.200,3600.000,0.300,1713.000,0.500,1921.000,1.000,893.000,5.000,2.000
"04/09/08","09:11:31",26129.000,"cc",28312.449,6.00,6,0.100,17756.000,0.200,3696.000,0.300,1728.000,0.500,2062.000,1.000,886.000,5.000,1.000
"04/09/08","09:11:37",26188.000,"cc",28398.912,6.00,6,0.100,17905.000,0.200,3465.000,0.300,1788.000,0.500,2140.000,1.000,890.000,5.000,0
"04/09/08","09:11:43",26077.000,"cc",28277.734,6.00,6,0.100,17686.000,0.200,3631.000,0.300,1748.000,0.500,2082.000,1.000,929.000,5.000,1.000
"04/09/08","09:11:49",26482.000,"cc",28325.240,6.00,6,0.100,18074.000,0.200,3613.000,0.300,1830.000,0.500,2113.000,1.000,850.000,5.000,2.000
"04/09/08","09:11:55",26099.000,"cc",28287.543,6.00,6,0.100,17623.000,0.200,3560.000,0.300,1912.000,0.500,2118.000,1.000,885.000,5.000,1.000
"04/09/08","09:12:01",26050.000,"cc",28343.473,6.00,6,0.100,17852.000,0.200,3658.000,0.300,1765.000,0.500,1988.000,1.000,786.000,5.000,1.000
"04/09/08","09:12:07",26427.000,"cc",28263.387,6.00,6,0.100,17802.000,0.200,3647.000,0.300,1862.000,0.500,2195.000,1.000,920.000,5.000,1.000
"04/09/08","09:12:13",26592.000,"cc",28284.117,6.00,6,0.100,17897.000,0.200,3672.000,0.300,1975.000,0.500,2144.000,1.000,901.000,5.000,3.000
"04/09/08","09:12:19",26670.000,"cc",28344.805,6.00,6,0.100,17948.000,0.200,3780.000,0.300,1898.000,0.500,2110.000,1.000,934.000,5.000,0
"04/09/08","09:12:25",26764.000,"cc",28322.451,6.00,6,0.100,17962.000,0.200,3684.000,0.300,1965.000,0.500,2224.000,1.000,929.000,5.000,0
"04/09/08","09:12:31",27431.000,"cc",28265.936,6.00,6,0.100,18256.000,0.200,3825.000,0.300,2016.000,0.500,2328.000,1.000,1006.000,5.000,0
"04/09/08","09:12:37",27179.000,"cc",28347.625,6.00,6,0.100,18265.000,0.200,3888.000,0.300,1891.000,0.500,2173.000,1.000,962.000,5.000,0
"04/09/08","09:12:43",26557.000,"cc",28370.916,6.00,6,0.100,18171.000,0.200,3658.000,0.300,1771.000,0.500,2058.000,1.000,896.000,5.000,3.000
"04/09/08","09:12:49",26485.000,"cc",28359.248,6.00,6,0.100,17929.000,0.200,3714.000,0.300,1863.000,0.500,2075.000,1.000,903.000,5.000,1.000
"04/09/08","09:12:55",26597.000,"cc",28281.588,6.00,6,0.100,18063.000,0.200,3675.000,0.300,1878.000,0.500,2084.000,1.000,896.000,5.000,1.000
"04/09/08","09:13:01",26676.000,"cc",28297.816,6.00,6,0.100,18048.000,0.200,3784.000,0.300,1869.000,0.500,2072.000,1.000,903.000,5.000,0
"04/09/08","09:13:07",26608.000,"cc",28378.981,6.00,6,0.100,18135.000,0.200,3585.000,0.300,1938.000,0.500,2081.000,1.000,869.000,5.000,0
"04/09/08","09:13:13",26375.000,"cc",28305.414,6.00,6,0.100,17960.000,0.200,3653.000,0.300,1793.000,0.500,2105.000,1.000,863.000,5.000,1.000
"04/09/08","09:13:19",26817.000,"cc",28232.084,6.00,6,0.100,18034.000,0.200,3733.000,0.300,1923.000,0.500,2119.000,1.000,1007.000,5.000,1.000
"04/09/08","09:13:25",26671.000,"cc",28327.106,6.00,6,0.100,17990.000,0.200,3754.000,0.300,1881.000,0.500,2160.000,1.000,886.000,5.000,0
"04/09/08","09:13:31",26784.000,"cc",28294.971,6.00,6,0.100,18141.000,0.200,3687.000,0.300,1936.000,0.500,2122.000,1.000,897.000,5.000,1.000
"04/09/08","09:13:37",27268.000,"cc",28358.191,6.00,6,0.100,18443.000,0.200,3770.000,0.300,1960.000,0.500,2201.000,1.000,894.000,5.000,0
"04/09/08","09:13:43",28734.000,"cc",28302.783,6.00,6,0.100,19014.000,0.200,4082.000,0.300,2156.000,0.500,2467.000,1.000,1014.000,5.000,1.000
"04/09/08","09:13:49",26888.000,"cc",28267.135,6.00,6,0.100,18346.000,0.200,3677.000,0.300,1859.000,0.500,2144.000,1.000,861.000,5.000,1.000
"04/09/08","09:13:55",26465.000,"cc",28345.398,6.00,6,0.100,17949.000,0.200,3763.000,0.300,1818.000,0.500,2066.000,1.000,868.000,5.000,1.000
"04/09/08","09:14:01",26308.000,"cc",28349.918,6.00,6,0.100,17967.000,0.200,3620.000,0.300,1795.000,0.500,2028.000,1.000,896.000,5.000,2.000
"04/09/08","09:14:07",27021.000,"cc",28286.900,6.00,6,0.100,18290.000,0.200,3794.000,0.300,1914.000,0.500,2121.000,1.000,901.000,5.000,1.000
"04/09/08","09:14:13",26980.000,"cc",28253.891,6.00,6,0.100,18293.000,0.200,3708.000,0.300,1919.000,0.500,2182.000,1.000,877.000,5.000,1.000
"04/09/08","09:14:19",26647.000,"cc",28342.262,6.00,6,0.100,18244.000,0.200,3604.000,0.300,1856.000,0.500,2038.000,1.000,905.000,5.000,0
"04/09/08","09:14:25",26980.000,"cc",28354.043,6.00,6,0.100,18374.000,0.200,3790.000,0.300,1837.000,0.500,2121.000,1.000,856.000,5.000,2.000
"04/09/08","09:14:31",26885.000,"cc",28351.059,6.00,6,0.100,18309.000,0.200,3686.000,0.300,1872.000,0.500,2075.000,1.000,942.000,5.000,1.000
"04/09/08","09:14:37",27176.000,"cc",28359.277,6.00,6,0.100,18521.000,0.200,3736.000,0.300,1883.000,0.500,2107.000,1.000,929.000,5.000,0
"04/09/08","09:14:43",27225.000,"cc",28257.283,6.00,6,0.100,18588.000,0.200,3781.000,0.300,1869.000,0.500,2106.000,1.000,880.000,5.000,1.000
"04/09/08","09:14:49",27173.000,"cc",28348.023,6.00,6,0.100,18353.000,0.200,3743.000,0.300,1907.000,0.500,2233.000,1.000,936.000,5.000,1.000
"04/09/08","09:14:55",26569.000,"cc",28405.834,6.00,6,0.100,18015.000,0.200,3790.000,0.300,1836.000,0.500,2110.000,1.000,816.000,5.000,2.000
"04/09/08","09:15:01",26536.000,"cc",28292.953,6.00,6,0.100,17989.000,0.200,3736.000,0.300,1855.000,0.500,2052.000,1.000,904.000,5.000,0
"04/09/08","09:15:07",26597.000,"cc",28276.270,6.00,6,0.100,18111.000,0.200,3676.000,0.300,1900.000,0.500,2038.000,1.000,871.000,5.000,1.000
"04/09/08","09:15:13",26564.000,"cc",28302.955,6.00,6,0.100,18168.000,0.200,3641.000,0.300,1812.000,0.500,2039.000,1.000,904.000,5.000,0
"04/09/08","09:15:19",26634.000,"cc",28336.402,6.00,6,0.100,18058.000,0.200,3734.000,0.300,1889.000,0.500,2100.000,1.000,852.000,5.000,1.000
"04/09/08","09:15:25",26757.000,"cc",28280.815,6.00,6,0.100,18146.000,0.200,3713.000,0.300,1873.000,0.500,2115.000,1.000,909.000,5.000,1.000
"04/09/08","09:15:31",27122.000,"cc",28228.375,6.00,6,0.100,18470.000,0.200,3778.000,0.300,1896.000,0.500,2118.000,1.000,860.000,5.000,0
"04/09/08","09:15:37",27017.000,"cc",28236.531,6.00,6,0.100,18427.000,0.200,3730.000,0.300,1805.000,0.500,2145.000,1.000,907.000,5.000,3.000
"04/09/08","09:15:43",27082.000,"cc",28417.090,6.00,6,0.100,18361.000,0.200,3796.000,0.300,1898.000,0.500,2124.000,1.000,903.000,5.000,0
"04/09/08","09:15:49",27513.000,"cc",28176.195,6.00,6,0.100,18475.000,0.200,3895.000,0.300,1940.000,0.500,2232.000,1.000,971.000,5.000,0
"04/09/08","09:15:55",27521.000,"cc",28400.982,6.00,6,0.100,18627.000,0.200,3878.000,0.300,1908.000,0.500,2173.000,1.000,934.000,5.000,1.000
"04/09/08","09:16:01",27097.000,"cc",28379.164,6.00,6,0.100,18375.000,0.200,3729.000,0.300,1915.000,0.500,2191.000,1.000,887.000,5.000,0